| time (UTC) | temp F | wind direction | speed MPH | gust MPH | rain 1hr in | rain 24hr in | rain mn in | humidity % | barometer mb |
| 20260901045003 | 60 | 0 | 0.0 | 0.0 | 0.00 | 0.00 | 0.00 | 93 | 1017.4 |
| 20260901044003 | 60 | 0 | 0.0 | 0.0 | 0.00 | 0.00 | 0.00 | 93 | 1017.6 |
| 20260901043024 | 61 | 0 | 0.0 | 0.0 | 0.00 | 0.00 | 0.00 | 93 | 1017.6 |
| 20260901042003 | 61 | 0 | 0.0 | 0.0 | 0.00 | 0.00 | 0.00 | 93 | 1017.6 |
| 20260901041003 | 62 | 0 | 0.0 | 0.0 | 0.00 | 0.00 | 0.00 | 93 | 1017.6 |
| 20260901040003 | 62 | 0 | 0.0 | 0.0 | 0.00 | 0.00 | 0.00 | 93 | 1017.7 |
| 20260901035003 | 62 | 0 | 0.0 | 0.0 | 0.00 | 0.00 | 0.00 | 92 | 1017.8 |
| 20260901034003 | 62 | 0 | 0.0 | 0.0 | 0.00 | 0.00 | 0.00 | 92 | 1017.7 |
| 20260901033003 | 62 | 0 | 0.0 | 0.0 | 0.00 | 0.00 | 0.00 | 92 | 1017.7 |
| 20260901032003 | 63 | 0 | 0.0 | 0.0 | 0.00 | 0.00 | 0.00 | 92 | 1017.5 |
| 20260901031003 | 63 | 0 | 0.0 | 0.0 | 0.00 | 0.00 | 0.00 | 92 | 1017.3 |
| 20260901030003 | 63 | 0 | 0.0 | 0.0 | 0.00 | 0.00 | 0.00 | 92 | 1017.3 |
| 20260901025003 | 63 | 0 | 0.0 | 0.0 | 0.00 | 0.00 | 0.00 | 92 | 1017.3 |
| 20260901024003 | 63 | 0 | 0.0 | 0.0 | 0.00 | 0.00 | 0.00 | 92 | 1017.7 |
| 20260901023003 | 63 | 0 | 0.0 | 0.0 | 0.00 | 0.00 | 0.00 | 91 | 1017.7 |
| 20260901022024 | 63 | 0 | 0.0 | 0.0 | 0.00 | 0.00 | 0.00 | 91 | 1018.0 |
| 20260901021003 | 63 | 0 | 0.0 | 0.0 | 0.00 | 0.00 | 0.00 | 91 | 1017.8 |
| 20260901020003 | 64 | 0 | 0.0 | 0.0 | 0.00 | 0.00 | 0.00 | 91 | 1018.1 |
| 20260901015024 | 64 | 0 | 0.0 | 0.0 | 0.00 | 0.00 | 0.00 | 91 | 1018.2 |
| 20260901014003 | 64 | 0 | 0.0 | 0.0 | 0.00 | 0.00 | 0.00 | 91 | 1018.1 |
| 20260901013003 | 64 | 226 | 0.0 | 2.0 | 0.00 | 0.00 | 0.00 | 91 | 1018.2 |
| 20260901012003 | 64 | 0 | 0.0 | 0.0 | 0.00 | 0.00 | 0.00 | 91 | 1018.2 |
| 20260901011004 | 64 | 0 | 0.0 | 0.0 | 0.00 | 0.00 | 0.00 | 90 | 1018.0 |
| 20260901010003 | 64 | 0 | 0.0 | 0.0 | 0.00 | 0.00 | 0.00 | 90 | 1018.0 |
| 20260901005024 | 64 | 226 | 0.0 | 1.0 | 0.00 | 0.00 | 0.00 | 89 | 1017.8 |
| 20260901004003 | 65 | 0 | 0.0 | 0.0 | 0.00 | 0.00 | 0.00 | 88 | 1017.9 |
| 20260901003003 | 65 | 0 | 0.0 | 0.0 | 0.00 | 0.00 | 0.00 | 88 | 1017.9 |
| 20260901002003 | 65 | 0 | 0.0 | 0.0 | 0.00 | 0.00 | 0.00 | 87 | 1017.8 |
| 20260901001003 | 65 | 226 | 0.0 | 1.0 | 0.00 | 0.00 | 0.00 | 86 | 1017.9 |
| 20260901000024 | 66 | 226 | 0.0 | 1.0 | 0.00 | 0.00 | 0.00 | 86 | 1017.9 |
| 20260831235003 | 66 | 0 | 0.0 | 0.0 | 0.00 | 0.00 | 0.00 | 85 | 1018.0 |
| 20260831234024 | 66 | 226 | 1.0 | 3.0 | 0.00 | 0.00 | 0.00 | 84 | 1017.9 |
| 20260831233003 | 67 | 227 | 1.0 | 4.0 | 0.00 | 0.00 | 0.00 | 83 | 1017.8 |
| 20260831232024 | 68 | 220 | 2.0 | 5.0 | 0.00 | 0.00 | 0.00 | 83 | 1017.9 |
| 20260831231003 | 68 | 219 | 0.0 | 2.0 | 0.00 | 0.01 | 0.00 | 83 | 1018.0 |
| 20260831230024 | 68 | 219 | 0.0 | 1.0 | 0.00 | 0.01 | 0.00 | 82 | 1018.1 |
| 20260831225003 | 68 | 219 | 0.0 | 2.0 | 0.00 | 0.01 | 0.00 | 82 | 1018.1 |
| 20260831224003 | 68 | 219 | 1.0 | 3.0 | 0.00 | 0.01 | 0.00 | 81 | 1018.1 |
| 20260831223003 | 69 | 219 | 1.0 | 3.0 | 0.00 | 0.01 | 0.00 | 81 | 1018.1 |
| 20260831222024 | 69 | 219 | 1.0 | 3.0 | 0.00 | 0.01 | 0.00 | 80 | 1018.1 |
| 20260831221003 | 69 | 0 | 0.0 | 0.0 | 0.00 | 0.01 | 0.00 | 81 | 1018.3 |
| 20260831220003 | 69 | 219 | 1.0 | 3.0 | 0.00 | 0.01 | 0.00 | 80 | 1018.4 |
| 20260831215003 | 69 | 219 | 1.0 | 3.0 | 0.00 | 0.01 | 0.00 | 80 | 1018.5 |
| 20260831214003 | 68 | 219 | 1.0 | 4.0 | 0.00 | 0.01 | 0.00 | 79 | 1018.4 |
| 20260831213024 | 68 | 219 | 2.0 | 4.0 | 0.00 | 0.01 | 0.00 | 79 | 1018.5 |
| 20260831212003 | 68 | 221 | 1.0 | 3.0 | 0.00 | 0.01 | 0.00 | 80 | 1018.5 |
| 20260831211003 | 68 | 221 | 1.0 | 4.0 | 0.00 | 0.01 | 0.00 | 79 | 1018.5 |
| 20260831210003 | 68 | 221 | 2.0 | 3.0 | 0.00 | 0.01 | 0.00 | 80 | 1018.6 |
| 20260831205003 | 68 | 221 | 1.0 | 4.0 | 0.00 | 0.01 | 0.00 | 79 | 1018.7 |
| 20260831204003 | 68 | 220 | 3.0 | 6.0 | 0.00 | 0.01 | 0.00 | 79 | 1018.7 |
| 20260831203003 | 68 | 234 | 1.0 | 4.0 | 0.00 | 0.01 | 0.00 | 79 | 1018.7 |
| 20260831202003 | 69 | 216 | 2.0 | 4.0 | 0.00 | 0.01 | 0.00 | 79 | 1018.7 |
| 20260831201024 | 69 | 218 | 3.0 | 8.0 | 0.00 | 0.01 | 0.00 | 78 | 1018.7 |
| 20260831200024 | 70 | 228 | 4.0 | 8.0 | 0.00 | 0.01 | 0.00 | 76 | 1018.7 |
| 20260831195003 | 70 | 230 | 3.0 | 13.0 | 0.00 | 0.04 | 0.00 | 74 | 1018.6 |
| 20260831194003 | 71 | 228 | 3.0 | 8.0 | 0.00 | 0.04 | 0.00 | 71 | 1018.7 |
| 20260831193003 | 72 | 242 | 2.0 | 8.0 | 0.00 | 0.04 | 0.00 | 66 | 1018.7 |
| 20260831192003 | 74 | 0 | 0.0 | 0.0 | 0.00 | 0.04 | 0.00 | 66 | 1018.6 |
| 20260831191003 | 74 | 294 | 0.0 | 2.0 | 0.00 | 0.04 | 0.00 | 57 | 1018.8 |
| 20260831190003 | 75 | 12 | 1.0 | 3.0 | 0.00 | 0.04 | 0.00 | 57 | 1018.8 |
| 20260831185003 | 75 | 293 | 1.0 | 4.0 | 0.00 | 0.04 | 0.00 | 58 | 1018.9 |
| 20260831184003 | 75 | 230 | 2.0 | 7.0 | 0.00 | 0.04 | 0.00 | 58 | 1018.9 |
| 20260831183003 | 75 | 220 | 2.0 | 7.0 | 0.00 | 0.04 | 0.00 | 58 | 1018.9 |
| 20260831182003 | 74 | 236 | 3.0 | 7.0 | 0.00 | 0.04 | 0.00 | 60 | 1019.0 |
| 20260831181003 | 75 | 225 | 1.0 | 5.0 | 0.00 | 0.04 | 0.00 | 62 | 1019.1 |
| 20260831180003 | 74 | 227 | 2.0 | 5.0 | 0.00 | 0.04 | 0.00 | 61 | 1019.2 |
| 20260831175024 | 74 | 240 | 1.0 | 4.0 | 0.00 | 0.04 | 0.00 | 60 | 1019.3 |
| 20260831174003 | 74 | 220 | 3.0 | 7.0 | 0.00 | 0.04 | 0.00 | 60 | 1019.7 |
| 20260831173003 | 73 | 228 | 1.0 | 4.0 | 0.00 | 0.04 | 0.00 | 64 | 1019.7 |
| 20260831172003 | 72 | 224 | 2.0 | 8.0 | 0.00 | 0.04 | 0.00 | 61 | 1019.8 |
| 20260831171003 | 72 | 234 | 2.0 | 7.0 | 0.00 | 0.04 | 0.00 | 63 | 1019.8 |
| 20260831170003 | 71 | 228 | 2.0 | 5.0 | 0.00 | 0.04 | 0.00 | 65 | 1019.9 |
| 20260831165003 | 71 | 237 | 2.0 | 5.0 | 0.00 | 0.04 | 0.00 | 70 | 1019.9 |
| 20260831164003 | 70 | 231 | 2.0 | 5.0 | 0.00 | 0.04 | 0.00 | 68 | 1019.9 |
| 20260831163003 | 70 | 224 | 1.0 | 4.0 | 0.00 | 0.04 | 0.00 | 69 | 1020.0 |
| 20260831162003 | 70 | 227 | 2.0 | 5.0 | 0.00 | 0.04 | 0.00 | 72 | 1020.0 |
| 20260831161003 | 70 | 230 | 2.0 | 4.0 | 0.00 | 0.04 | 0.00 | 72 | 1020.1 |
| 20260831160003 | 70 | 225 | 1.0 | 3.0 | 0.00 | 0.04 | 0.00 | 79 | 1020.4 |
| 20260831155003 | 68 | 225 | 1.0 | 3.0 | 0.00 | 0.04 | 0.00 | 79 | 1020.6 |
| 20260831154003 | 68 | 228 | 1.0 | 5.0 | 0.00 | 0.04 | 0.00 | 78 | 1020.5 |
| 20260831153003 | 67 | 219 | 2.0 | 4.0 | 0.00 | 0.04 | 0.00 | 79 | 1020.5 |
| 20260831152003 | 66 | 161 | 0.0 | 2.0 | 0.00 | 0.04 | 0.00 | 87 | 1020.5 |
| 20260831151024 | 66 | 117 | 0.0 | 2.0 | 0.00 | 0.04 | 0.00 | 89 | 1020.6 |
| 20260831150003 | 65 | 102 | 1.0 | 3.0 | 0.00 | 0.04 | 0.00 | 92 | 1020.5 |
| 20260831145003 | 64 | 0 | 0.0 | 0.0 | 0.00 | 0.04 | 0.00 | 92 | 1020.7 |
| 20260831144024 | 63 | 350 | 0.0 | 2.0 | 0.00 | 0.04 | 0.00 | 94 | 1020.7 |
| 20260831143003 | 62 | 140 | 1.0 | 3.0 | 0.00 | 0.04 | 0.00 | 95 | 1020.7 |
| 20260831142003 | 62 | 182 | 1.0 | 3.0 | 0.00 | 0.04 | 0.00 | 95 | 1020.7 |
| 20260831141003 | 61 | 155 | 1.0 | 4.0 | 0.00 | 0.04 | 0.00 | 96 | 1020.7 |
| 20260831140024 | 60 | 0 | 0.0 | 0.0 | 0.00 | 0.04 | 0.00 | 96 | 1020.8 |
| 20260831135025 | 60 | 90 | 0.0 | 3.0 | 0.00 | 0.05 | 0.00 | 96 | 1020.9 |
| 20260831134003 | 60 | 90 | 0.0 | 1.0 | 0.00 | 0.05 | 0.00 | 96 | 1020.9 |
| 20260831133024 | 59 | 0 | 0.0 | 0.0 | 0.00 | 0.05 | 0.00 | 96 | 1020.9 |
| 20260831132024 | 59 | 0 | 0.0 | 0.0 | 0.00 | 0.05 | 0.00 | 97 | 1020.9 |
| 20260831131003 | 59 | 0 | 0.0 | 0.0 | 0.00 | 0.05 | 0.00 | 96 | 1020.8 |
| 20260831130003 | 58 | 182 | 0.0 | 3.0 | 0.00 | 0.05 | 0.00 | 96 | 1020.8 |
| 20260831125003 | 58 | 182 | 0.0 | 3.0 | 0.00 | 0.05 | 0.00 | 96 | 1021.0 |
| 20260831124003 | 58 | 182 | 0.0 | 3.0 | 0.00 | 0.05 | 0.00 | 96 | 1021.0 |
| 20260831123003 | 58 | 0 | 0.0 | 0.0 | 0.00 | 0.05 | 0.00 | 96 | 1021.0 |
| 20260831122003 | 58 | 182 | 0.0 | 2.0 | 0.00 | 0.05 | 0.00 | 96 | 1021.1 |
| 20260831121003 | 58 | 0 | 0.0 | 0.0 | 0.00 | 0.05 | 0.00 | 96 | 1021.0 |
| 20260831120003 | 58 | 0 | 0.0 | 0.0 | 0.00 | 0.05 | 0.00 | 96 | 1020.9 |
| 20260831115024 | 58 | 0 | 0.0 | 0.0 | 0.00 | 0.05 | 0.00 | 96 | 1020.9 |
| 20260831114003 | 58 | 164 | 0.0 | 1.0 | 0.00 | 0.05 | 0.00 | 96 | 1021.0 |
| 20260831113003 | 58 | 0 | 0.0 | 0.0 | 0.00 | 0.05 | 0.00 | 96 | 1020.8 |
| 20260831112003 | 58 | 0 | 0.0 | 0.0 | 0.00 | 0.05 | 0.00 | 96 | 1020.8 |
| 20260831111024 | 58 | 0 | 0.0 | 0.0 | 0.00 | 0.05 | 0.00 | 97 | 1020.6 |
| 20260831110003 | 57 | 0 | 0.0 | 0.0 | 0.00 | 0.05 | 0.00 | 96 | 1020.5 |
| 20260831105024 | 57 | 0 | 0.0 | 0.0 | 0.00 | 0.05 | 0.00 | 96 | 1020.4 |
| 20260831104003 | 57 | 0 | 0.0 | 0.0 | 0.00 | 0.05 | 0.00 | 96 | 1020.3 |
| 20260831103003 | 57 | 0 | 0.0 | 0.0 | 0.00 | 0.05 | 0.00 | 96 | 1020.2 |
| 20260831102003 | 56 | 0 | 0.0 | 0.0 | 0.00 | 0.05 | 0.00 | 96 | 1019.8 |
| 20260831101003 | 56 | 0 | 0.0 | 0.0 | 0.00 | 0.05 | 0.00 | 96 | 1019.9 |
| 20260831100003 | 56 | 0 | 0.0 | 0.0 | 0.00 | 0.05 | 0.00 | 96 | 1019.9 |
| 20260831095024 | 56 | 0 | 0.0 | 0.0 | 0.00 | 0.05 | 0.00 | 96 | 1019.9 |
| 20260831094003 | 56 | 0 | 0.0 | 0.0 | 0.00 | 0.05 | 0.00 | 96 | 1020.0 |
| 20260831093003 | 56 | 0 | 0.0 | 0.0 | 0.00 | 0.05 | 0.00 | 96 | 1020.0 |
| 20260831092003 | 56 | 0 | 0.0 | 0.0 | 0.00 | 0.05 | 0.00 | 96 | 1019.9 |
| 20260831091003 | 56 | 0 | 0.0 | 0.0 | 0.00 | 0.05 | 0.00 | 95 | 1019.8 |
| 20260831090003 | 56 | 0 | 0.0 | 0.0 | 0.00 | 0.05 | 0.00 | 96 | 1019.8 |
| 20260831085003 | 56 | 0 | 0.0 | 0.0 | 0.00 | 0.05 | 0.00 | 95 | 1019.8 |
| 20260831084003 | 56 | 0 | 0.0 | 0.0 | 0.00 | 0.05 | 0.00 | 95 | 1019.8 |
| 20260831083024 | 56 | 0 | 0.0 | 0.0 | 0.00 | 0.05 | 0.00 | 95 | 1019.9 |
| 20260831082003 | 56 | 0 | 0.0 | 0.0 | 0.00 | 0.05 | 0.00 | 95 | 1019.9 |
| 20260831081003 | 57 | 0 | 0.0 | 0.0 | 0.00 | 0.05 | 0.00 | 95 | 1019.8 |
| 20260831080003 | 57 | 0 | 0.0 | 0.0 | 0.00 | 0.05 | 0.00 | 95 | 1019.9 |
| 20260831075003 | 58 | 0 | 0.0 | 0.0 | 0.00 | 0.05 | 0.00 | 95 | 1019.8 |
| 20260831074003 | 58 | 0 | 0.0 | 0.0 | 0.00 | 0.05 | 0.00 | 96 | 1019.8 |
| 20260831073003 | 58 | 0 | 0.0 | 0.0 | 0.00 | 0.05 | 0.00 | 96 | 1019.8 |
| 20260831072003 | 58 | 0 | 0.0 | 0.0 | 0.00 | 0.05 | 0.00 | 95 | 1019.9 |
| 20260831071003 | 58 | 0 | 0.0 | 0.0 | 0.00 | 0.05 | 0.00 | 95 | 1019.8 |
| 20260831070003 | 57 | 0 | 0.0 | 0.0 | 0.00 | 0.05 | 0.00 | 95 | 1019.8 |
| 20260831065024 | 57 | 0 | 0.0 | 0.0 | 0.00 | 0.05 | 0.00 | 95 | 1019.8 |
| 20260831064003 | 57 | 0 | 0.0 | 0.0 | 0.00 | 0.05 | 0.00 | 95 | 1019.7 |
| 20260831063024 | 57 | 0 | 0.0 | 0.0 | 0.00 | 0.05 | 0.00 | 94 | 1019.9 |
| 20260831062003 | 58 | 0 | 0.0 | 0.0 | 0.00 | 0.05 | 0.00 | 94 | 1019.7 |
| 20260831061003 | 58 | 0 | 0.0 | 0.0 | 0.00 | 0.05 | 0.00 | 94 | 1019.7 |
| 20260831060003 | 59 | 0 | 0.0 | 0.0 | 0.00 | 0.05 | 0.00 | 94 | 1019.6 |
| 20260831055003 | 59 | 0 | 0.0 | 0.0 | 0.00 | 0.05 | 0.00 | 94 | 1019.8 |
| 20260831054003 | 59 | 0 | 0.0 | 0.0 | 0.00 | 0.05 | 0.00 | 94 | 1019.7 |
| 20260831053003 | 60 | 0 | 0.0 | 0.0 | 0.00 | 0.05 | 0.00 | 94 | 1019.9 |
| 20260831052003 | 60 | 0 | 0.0 | 0.0 | 0.00 | 0.05 | 0.00 | 94 | 1020.1 |
| 20260831051003 | 60 | 0 | 0.0 | 0.0 | 0.00 | 0.05 | 0.00 | 94 | 1020.2 |
| 20260831050003 | 61 | 0 | 0.0 | 0.0 | 0.00 | 0.05 | 0.00 | 94 | 1020.1 |